Location: Mentone
(34.5413°N, 85.5351°W)
Time: 02:23:15
(UTC-05:00)

Centaur AC-72 - Visible Passes

Search period start: 26 May 2017 00:00
Search period end: 05 June 2017 00:00
Orbit: 1108 x 35247 km, 19.4° (Epoch: 25 May)

Date Brightness Start Highest point End Pass type
(mag) Time Alt. Az. Time Alt. Az. Time Alt. Az.
26 May 6.8 19:32:56 10° SE 01:10:56 38° SE 02:22:17 10° E visible
28 May 6.6 22:38:41 10° SW 01:09:32 23° SW 07:57:13 10° ESE visible
29 May 7.3 19:18:59 10° SSW 04:39:14 52° S 05:05:14 10° ESE daylight
30 May 6.8 19:21:42 10° SE 00:54:12 38° SE 02:06:18 10° E visible
01 Jun 6.6 22:21:25 10° SW 00:57:37 24° SW 07:41:23 10° ESE visible
02 Jun 7.3 19:03:37 10° SSW 04:22:27 53° S 04:49:21 10° ESE visible
03 Jun 6.7 19:10:05 10° SE 00:37:25 38° SE 01:50:18 10° E visible
